SVA41 OEJN-KLAX

Flight info

Callsign SVA41
Flight time N/A
Altitude 30000
Route MIGDA L677 CVO/N0499F320 L617 NOZ L551 ANTAR UN133 ATFIR DCT LOMOS DCT BUDOP DCT BABKO DCT POKEN/N0483F340 DCT NERDO DCT GUNPA/M084F340 DCT 64N010W 66N020W 6730N03000W 68N040W/M084F360 68N050W DCT DARUB/N0491F360 DCT 6530N07000W 6330N08000W 5930N09000W/N0489F380 DCT YGX DCT AMENU DCT ISN DCT MLS DCT BPI DCT ODUCE J202 FFU DCT WINEN DCT OVETO J107 BLD DCT TNP DCT SEAVU
Aircraft B77W/H-SDE1E2E3FGHIJ2J3J4J5M1RWXY/LB1D1

Departure

Time 2026-04-29 15:43
Airport King Abdulaziz International Airport (OEJN)

Arrival

Time N/A
Airport Los Angeles International Airport (KLAX)
Time Latitude Longitude Altitude Speed Heading
2026-04-29 15:14 21.67159 39.16575 38 ft 0 kts 193°
2026-04-29 15:31 21.67176 39.16580 36 ft 4 kts 199°
2026-04-29 15:32 21.67201 39.16591 33 ft 4 kts 212°
2026-04-29 15:32 21.67222 39.16609 32 ft 4 kts 234°
2026-04-29 15:32 21.67231 39.16633 33 ft 3 kts 276°
2026-04-29 15:32 21.67231 39.16638 32 ft 0 kts 281°
2026-04-29 15:35 21.67233 39.16628 36 ft 3 kts 281°
2026-04-29 15:35 21.67238 39.16602 36 ft 0 kts 281°
2026-04-29 15:36 21.67243 39.16577 37 ft 7 kts 283°
2026-04-29 15:36 21.67286 39.16514 36 ft 14 kts 320°
2026-04-29 15:36 21.67391 39.16471 36 ft 17 kts 349°
2026-04-29 15:36 21.67482 39.16439 36 ft 13 kts 341°
2026-04-29 15:37 21.67560 39.16396 36 ft 13 kts 305°
2026-04-29 15:37 21.67545 39.16300 35 ft 13 kts 251°
2026-04-29 15:37 21.67513 39.16208 35 ft 13 kts 250°
2026-04-29 15:37 21.67447 39.16158 35 ft 13 kts 161°
2026-04-29 15:38 21.67360 39.16195 35 ft 13 kts 158°
2026-04-29 15:38 21.67273 39.16231 36 ft 13 kts 160°
2026-04-29 15:38 21.67185 39.16267 37 ft 13 kts 159°
2026-04-29 15:38 21.67098 39.16303 37 ft 13 kts 159°
2026-04-29 15:39 21.67010 39.16339 38 ft 13 kts 159°
2026-04-29 15:39 21.66922 39.16374 38 ft 13 kts 160°
2026-04-29 15:39 21.66834 39.16407 39 ft 13 kts 161°
2026-04-29 15:39 21.66746 39.16441 39 ft 13 kts 160°
2026-04-29 15:40 21.66659 39.16475 39 ft 13 kts 160°
2026-04-29 15:40 21.66570 39.16509 40 ft 13 kts 160°
2026-04-29 15:40 21.66483 39.16546 40 ft 13 kts 159°
2026-04-29 15:40 21.66395 39.16581 40 ft 13 kts 159°
2026-04-29 15:41 21.66307 39.16616 40 ft 13 kts 160°
2026-04-29 15:41 21.66223 39.16645 40 ft 13 kts 180°
2026-04-29 15:41 21.66167 39.16579 39 ft 13 kts 249°
2026-04-29 15:41 21.66148 39.16487 38 ft 12 kts 298°
2026-04-29 15:42 21.66189 39.16457 38 ft 0 kts 341°
2026-04-29 15:42 21.66258 39.16431 38 ft 36 kts 340°
2026-04-29 15:42 21.66723 39.16249 41 ft 106 kts 340°
2026-04-29 15:42 21.67621 39.15896 35 ft 166 kts 340°
2026-04-29 15:43 21.68832 39.15432 229 ft 190 kts 340°
2026-04-29 15:43 21.70089 39.14957 699 ft 195 kts 340°
2026-04-29 15:43 21.71372 39.14444 1264 ft 198 kts 340°
2026-04-29 15:43 21.72680 39.13919 1787 ft 206 kts 339°
2026-04-29 15:44 21.73597 39.13551 1899 ft 218 kts 339°
2026-04-29 15:44 21.75071 39.12964 2229 ft 229 kts 339°
2026-04-29 15:44 21.76593 39.12357 2678 ft 239 kts 338°
2026-04-29 15:44 21.78166 39.11732 3192 ft 243 kts 337°
2026-04-29 15:45 21.79796 39.11088 3539 ft 256 kts 338°
2026-04-29 15:45 21.81503 39.10411 3868 ft 266 kts 336°
2026-04-29 15:45 21.83239 39.09724 4345 ft 273 kts 337°
2026-04-29 15:45 21.85048 39.09010 4834 ft 279 kts 336°
2026-04-29 15:46 21.86873 39.08291 5426 ft 281 kts 337°
2026-04-29 15:46 21.88703 39.07569 5926 ft 279 kts 338°
2026-04-29 15:46 21.90539 39.06815 6015 ft 286 kts 335°
2026-04-29 15:46 21.92361 39.05946 6021 ft 286 kts 333°
2026-04-29 15:47 21.94171 39.05060 6016 ft 285 kts 332°
2026-04-29 15:47 21.95969 39.04188 6015 ft 283 kts 334°
2026-04-29 15:47 21.97763 39.03327 6015 ft 281 kts 333°
2026-04-29 15:47 21.99544 39.02475 6018 ft 280 kts 333°
2026-04-29 15:48 22.01320 39.01626 6059 ft 279 kts 334°
2026-04-29 15:48 22.03086 39.00783 6528 ft 280 kts 332°
2026-04-29 15:48 22.04891 38.99917 6915 ft 288 kts 334°
2026-04-29 15:48 22.06729 38.99037 7453 ft 289 kts 334°
2026-04-29 15:49 22.08564 38.98159 8056 ft 289 kts 334°
2026-04-29 15:49 22.10417 38.97271 8535 ft 293 kts 332°
2026-04-29 15:49 22.12290 38.96374 9067 ft 296 kts 333°
2026-04-29 15:49 22.14178 38.95469 9589 ft 298 kts 333°
2026-04-29 15:50 22.16058 38.94568 10076 ft 300 kts 333°
2026-04-29 15:50 22.17995 38.93641 10388 ft 312 kts 333°
2026-04-29 15:50 22.20038 38.92663 10506 ft 329 kts 333°
2026-04-29 15:50 22.22188 38.91635 10659 ft 347 kts 333°
2026-04-29 15:51 22.24451 38.90552 10780 ft 364 kts 333°
2026-04-29 15:51 22.26803 38.89428 11111 ft 374 kts 333°
2026-04-29 15:51 22.29212 38.88274 11562 ft 381 kts 334°
2026-04-29 15:52 22.31737 38.87064 12187 ft 384 kts 334°
2026-04-29 15:52 22.34185 38.85891 12868 ft 385 kts 334°
2026-04-29 15:52 22.36647 38.84710 13512 ft 388 kts 333°
2026-04-29 15:52 22.39122 38.83522 14079 ft 391 kts 333°
2026-04-29 15:53 22.41582 38.82341 14672 ft 391 kts 333°
2026-04-29 15:53 22.44103 38.81129 15295 ft 391 kts 333°
2026-04-29 15:53 22.46565 38.79946 15896 ft 392 kts 333°
2026-04-29 15:53 22.49061 38.78745 16464 ft 394 kts 333°
2026-04-29 15:54 22.51570 38.77538 17030 ft 395 kts 333°
2026-04-29 15:54 22.54085 38.76327 17601 ft 396 kts 333°
2026-04-29 15:54 22.56608 38.75111 18152 ft 398 kts 333°
2026-04-29 15:54 22.59147 38.73889 18611 ft 400 kts 333°
2026-04-29 15:55 22.61704 38.72656 19032 ft 403 kts 333°
2026-04-29 15:55 22.64277 38.71416 19456 ft 407 kts 333°
2026-04-29 15:55 22.66898 38.70205 19863 ft 410 kts 334°
2026-04-29 15:55 22.69551 38.69027 20287 ft 414 kts 334°
2026-04-29 15:56 22.72230 38.67853 20704 ft 417 kts 334°
2026-04-29 15:56 22.74928 38.66672 21118 ft 420 kts 334°
2026-04-29 15:56 22.77615 38.65491 21536 ft 423 kts 334°
2026-04-29 15:57 22.80431 38.64248 21944 ft 427 kts 334°
2026-04-29 15:57 22.83192 38.63025 22353 ft 430 kts 334°
2026-04-29 15:57 22.85975 38.61790 22745 ft 433 kts 334°
2026-04-29 15:57 22.88774 38.60546 23155 ft 436 kts 333°
2026-04-29 15:58 22.91593 38.59291 23565 ft 438 kts 333°
2026-04-29 15:58 22.94420 38.58032 23892 ft 441 kts 333°
2026-04-29 15:58 22.97269 38.56763 24214 ft 444 kts 333°
2026-04-29 15:58 23.00134 38.55486 24536 ft 446 kts 333°
2026-04-29 15:59 23.03015 38.54201 24854 ft 449 kts 333°
2026-04-29 15:59 23.05909 38.52910 25170 ft 451 kts 333°
2026-04-29 15:59 23.08788 38.51625 25476 ft 453 kts 332°
2026-04-29 15:59 23.11714 38.50319 25779 ft 456 kts 332°
2026-04-29 16:00 23.14655 38.49005 26059 ft 458 kts 332°
2026-04-29 16:00 23.17612 38.47683 26382 ft 461 kts 332°
2026-04-29 16:00 23.20586 38.46355 26701 ft 462 kts 332°
2026-04-29 16:00 23.23568 38.45021 27002 ft 464 kts 331°
2026-04-29 16:01 23.26565 38.43679 27265 ft 467 kts 331°
2026-04-29 16:01 23.29582 38.42327 27520 ft 469 kts 331°
2026-04-29 16:01 23.32614 38.40969 27776 ft 472 kts 331°
2026-04-29 16:02 23.34884 38.39951 27967 ft 473 kts 331°
2026-04-29 16:02 23.37938 38.38582 28209 ft 475 kts 331°
2026-04-29 16:02 23.41003 38.37208 28434 ft 477 kts 330°
2026-04-29 16:02 23.44088 38.35823 28663 ft 479 kts 330°
2026-04-29 16:03 23.47178 38.34436 28904 ft 481 kts 330°
2026-04-29 16:03 23.50279 38.33043 29126 ft 483 kts 330°
2026-04-29 16:03 23.53388 38.31645 29334 ft 484 kts 330°
2026-04-29 16:03 23.56476 38.30257 29517 ft 486 kts 330°
2026-04-29 16:04 23.59619 38.28843 29684 ft 488 kts 330°
2026-04-29 16:04 23.62764 38.27427 29828 ft 491 kts 330°
2026-04-29 16:04 23.65924 38.26004 29868 ft 492 kts 330°
2026-04-29 16:05 23.72245 38.23170 29897 ft 488 kts 330°
2026-04-29 16:05 23.78525 38.20352 29901 ft 487 kts 330°
2026-04-29 16:06 23.84785 38.17536 29900 ft 486 kts 330°
2026-04-29 16:06 23.90988 38.14743 29856 ft 485 kts 330°
2026-04-29 16:07 23.94092 38.13344 29864 ft 484 kts 330°
2026-04-29 16:07 24.00335 38.10527 29842 ft 485 kts 330°
2026-04-29 16:08 24.06574 38.07710 29843 ft 485 kts 330°
2026-04-29 16:08 24.12801 38.04878 29834 ft 483 kts 328°
2026-04-29 16:09 24.18557 38.01357 29826 ft 471 kts 319°
2026-04-29 16:09 24.23935 37.97251 29831 ft 470 kts 319°
2026-04-29 16:10 24.29333 37.93159 29825 ft 471 kts 319°
2026-04-29 16:10 24.34705 37.89113 29871 ft 471 kts 319°
2026-04-29 16:11 24.40116 37.85044 29843 ft 470 kts 319°
2026-04-29 16:11 24.45508 37.80986 29834 ft 469 kts 319°
2026-04-29 16:12 24.48068 37.79057 29851 ft 469 kts 319°
2026-04-29 16:12 24.53441 37.75005 29848 ft 467 kts 319°
2026-04-29 16:13 24.58811 37.70949 29868 ft 467 kts 320°
2026-04-29 16:13 24.64168 37.66900 29872 ft 467 kts 319°
2026-04-29 16:14 24.69498 37.62867 29875 ft 467 kts 320°
2026-04-29 16:14 24.74851 37.58813 29888 ft 465 kts 319°
2026-04-29 16:15 24.80146 37.54798 29886 ft 463 kts 319°
2026-04-29 16:15 24.85454 37.50769 29889 ft 462 kts 319°
2026-04-29 16:16 24.90759 37.46735 29898 ft 462 kts 320°
2026-04-29 16:16 24.96025 37.42728 29896 ft 462 kts 320°
2026-04-29 16:17 24.98601 37.40767 29922 ft 463 kts 320°
2026-04-29 16:17 25.03905 37.36728 29908 ft 463 kts 320°
2026-04-29 16:18 25.09171 37.32712 29900 ft 462 kts 320°
2026-04-29 16:18 25.14451 37.28680 29906 ft 461 kts 320°
2026-04-29 16:19 25.19732 37.24642 29907 ft 460 kts 320°
2026-04-29 16:19 25.24992 37.20617 29912 ft 460 kts 320°
2026-04-29 16:20 25.30233 37.16600 29905 ft 459 kts 320°
2026-04-29 16:20 25.35484 37.12567 29900 ft 459 kts 320°
2026-04-29 16:21 25.40739 37.08528 29895 ft 459 kts 320°
2026-04-29 16:21 25.45960 37.04527 29890 ft 459 kts 320°
2026-04-29 16:22 25.48498 37.02584 29889 ft 459 kts 320°
2026-04-29 16:22 25.53767 36.98543 29895 ft 460 kts 320°
2026-04-29 16:23 25.58992 36.94530 29884 ft 459 kts 320°
2026-04-29 16:23 25.64236 36.90494 30515 ft 461 kts 324°
2026-04-29 16:23 25.66888 36.88452 30278 ft 466 kts 325°
2026-04-29 16:24 25.69566 36.86392 30167 ft 468 kts 325°
2026-04-29 16:24 25.74892 36.82283 30046 ft 469 kts 324°
2026-04-29 16:25 25.80248 36.78130 30007 ft 469 kts 324°
2026-04-29 16:25 25.85570 36.73997 29998 ft 467 kts 324°
2026-04-29 16:26 25.90900 36.69855 29999 ft 466 kts 324°
2026-04-29 16:26 25.96223 36.65714 30000 ft 465 kts 324°
2026-04-29 16:27 25.98770 36.63731 30000 ft 465 kts 324°
2026-04-29 16:27 26.04066 36.59604 30000 ft 463 kts 324°
2026-04-29 16:28 26.09316 36.55508 30000 ft 462 kts 324°
2026-04-29 16:28 26.14585 36.51394 30000 ft 461 kts 324°
2026-04-29 16:29 26.19611 36.46970 29989 ft 460 kts 314°
2026-04-29 16:29 26.24046 36.41844 30001 ft 458 kts 313°
2026-04-29 16:30 26.28423 36.36730 30000 ft 458 kts 313°
2026-04-29 16:30 26.32842 36.31610 30000 ft 457 kts 314°
2026-04-29 16:31 26.37259 36.26510 30001 ft 457 kts 314°
2026-04-29 16:31 26.40925 36.22278 30001 ft 456 kts 314°
2026-04-29 16:32 26.43820 36.18933 30001 ft 456 kts 314°
2026-04-29 16:32 26.47484 36.14694 30001 ft 456 kts 313°
2026-04-29 16:33 26.54080 36.07051 30001 ft 455 kts 313°
2026-04-29 16:33 26.58470 36.01957 30001 ft 455 kts 313°
2026-04-29 16:34 26.62859 35.96858 30001 ft 455 kts 313°
2026-04-29 16:34 26.67244 35.91758 30001 ft 454 kts 313°
2026-04-29 16:35 26.71627 35.86652 30001 ft 454 kts 313°
2026-04-29 16:35 26.75981 35.81576 30001 ft 454 kts 313°
2026-04-29 16:36 26.80358 35.76467 30001 ft 454 kts 313°
2026-04-29 16:36 26.82519 35.73945 30001 ft 454 kts 313°
2026-04-29 16:37 26.86792 35.68951 30001 ft 454 kts 313°
2026-04-29 16:37 26.90428 35.64695 30001 ft 453 kts 313°
2026-04-29 16:38 26.95524 35.58724 30001 ft 453 kts 313°
2026-04-29 16:38 26.99879 35.53614 30001 ft 453 kts 313°
2026-04-29 16:39 27.04219 35.48515 30001 ft 453 kts 313°
2026-04-29 16:39 27.08580 35.43386 30001 ft 453 kts 313°
2026-04-29 16:40 27.12920 35.38275 30001 ft 453 kts 313°
2026-04-29 16:40 27.17270 35.33145 30001 ft 453 kts 313°
2026-04-29 16:41 27.21595 35.28039 30001 ft 453 kts 313°
2026-04-29 16:41 27.23771 35.25469 30001 ft 453 kts 313°
2026-04-29 16:42 27.28045 35.20414 30001 ft 453 kts 313°
2026-04-29 16:42 27.32390 35.15268 30001 ft 453 kts 313°
2026-04-29 16:43 27.36710 35.10147 30001 ft 453 kts 313°
2026-04-29 16:43 27.41053 35.04992 30001 ft 453 kts 313°
2026-04-29 16:44 27.45394 34.99832 30001 ft 453 kts 313°
2026-04-29 16:44 27.49718 34.94687 30001 ft 453 kts 313°
2026-04-29 16:45 27.54182 34.89668 29999 ft 453 kts 316°
2026-04-29 16:45 27.58800 34.84828 30002 ft 453 kts 317°
2026-04-29 16:46 27.63388 34.80020 30001 ft 453 kts 316°
2026-04-29 16:46 27.65705 34.77577 30002 ft 453 kts 316°
2026-04-29 16:47 27.70235 34.72779 30001 ft 453 kts 316°
2026-04-29 16:47 27.74805 34.67927 30001 ft 453 kts 316°
2026-04-29 16:48 27.79405 34.63039 30002 ft 453 kts 316°
2026-04-29 16:48 27.84012 34.58137 30001 ft 453 kts 316°
2026-04-29 16:49 27.88581 34.53271 30002 ft 453 kts 316°
2026-04-29 16:49 27.93176 34.48370 30001 ft 454 kts 316°
2026-04-29 16:50 27.97773 34.43465 30001 ft 454 kts 316°
2026-04-29 16:50 28.02102 34.38273 30002 ft 452 kts 309°
2026-04-29 16:51 28.06040 34.32772 30008 ft 453 kts 308°
2026-04-29 16:51 28.08022 34.29991 30002 ft 453 kts 308°
2026-04-29 16:52 28.11950 34.24511 30004 ft 453 kts 309°
2026-04-29 16:52 28.15919 34.19001 30002 ft 453 kts 309°
2026-04-29 16:53 28.19920 34.13448 30003 ft 454 kts 309°
2026-04-29 16:53 28.23907 34.07909 30004 ft 454 kts 309°
2026-04-29 16:54 28.27901 34.02350 29996 ft 454 kts 309°
2026-04-29 16:54 28.31874 33.96814 30006 ft 454 kts 309°
2026-04-29 16:55 28.35870 33.91237 30003 ft 455 kts 309°
2026-04-29 16:55 28.39862 33.85657 30000 ft 455 kts 309°
2026-04-29 16:56 28.43832 33.80103 30000 ft 455 kts 309°
2026-04-29 16:56 28.45827 33.77309 30002 ft 455 kts 309°
2026-04-29 16:57 28.49685 33.71898 29999 ft 455 kts 308°
2026-04-29 16:57 28.53680 33.66292 30002 ft 455 kts 308°
2026-04-29 16:58 28.57663 33.60686 30001 ft 455 kts 308°
2026-04-29 16:58 28.61624 33.55103 30003 ft 456 kts 308°
2026-04-29 16:59 28.65609 33.49485 30002 ft 456 kts 308°
2026-04-29 16:59 28.69596 33.43868 30000 ft 456 kts 308°
2026-04-29 17:00 28.73583 33.38241 30002 ft 456 kts 308°
2026-04-29 17:00 28.77565 33.32612 30001 ft 456 kts 308°
2026-04-29 17:01 28.81549 33.26973 30002 ft 456 kts 308°
2026-04-29 17:01 28.83542 33.24148 30000 ft 456 kts 308°
2026-04-29 17:02 28.87502 33.18530 30002 ft 456 kts 308°
2026-04-29 17:02 28.91454 33.12916 30001 ft 456 kts 308°
2026-04-29 17:03 28.95431 33.07258 30001 ft 456 kts 308°
2026-04-29 17:03 28.99400 33.01606 30001 ft 456 kts 308°
2026-04-29 17:04 29.03370 32.95943 30001 ft 456 kts 308°
2026-04-29 17:04 29.07335 32.90280 30001 ft 456 kts 308°
2026-04-29 17:05 29.11298 32.84611 30001 ft 456 kts 308°
2026-04-29 17:05 29.15260 32.78937 30001 ft 456 kts 308°
2026-04-29 17:06 29.19202 32.73283 30001 ft 456 kts 308°
2026-04-29 17:06 29.21179 32.70444 30001 ft 456 kts 308°
2026-04-29 17:07 29.24471 32.65712 30002 ft 456 kts 308°
2026-04-29 17:07 29.29070 32.59092 30001 ft 456 kts 308°
2026-04-29 17:08 29.33007 32.53369 30001 ft 456 kts 308°
2026-04-29 17:08 29.36932 32.47635 30003 ft 456 kts 308°
2026-04-29 17:09 29.40854 32.41902 30002 ft 457 kts 308°
2026-04-29 17:09 29.44758 32.36192 30001 ft 457 kts 308°
2026-04-29 17:10 29.48685 32.30441 30002 ft 457 kts 308°
2026-04-29 17:10 29.52603 32.24695 30000 ft 457 kts 308°
2026-04-29 17:11 29.56521 32.18941 30002 ft 457 kts 308°
2026-04-29 17:11 29.58478 32.16063 30003 ft 457 kts 308°
2026-04-29 17:12 29.62308 32.10426 30001 ft 457 kts 307°
2026-04-29 17:12 29.65566 32.05625 30002 ft 457 kts 307°
2026-04-29 17:13 29.70138 31.98878 29961 ft 458 kts 307°
2026-04-29 17:13 29.74069 31.93065 29996 ft 467 kts 307°
2026-04-29 17:14 29.78108 31.87088 30017 ft 477 kts 307°
2026-04-29 17:14 29.82138 31.80920 30015 ft 486 kts 306°
2026-04-29 17:15 29.86186 31.74576 30012 ft 495 kts 306°
2026-04-29 17:15 29.89609 31.69242 30011 ft 501 kts 306°
2026-04-29 17:16 29.92385 31.64927 29788 ft 497 kts 305°
2026-04-29 17:16 29.94342 31.61900 30499 ft 460 kts 304°
2026-04-29 17:16 29.96212 31.59011 30504 ft 446 kts 304°
2026-04-29 17:17 29.97934 31.56341 30402 ft 432 kts 304°
2026-04-29 17:17 29.99725 31.53557 30212 ft 429 kts 304°
2026-04-29 17:17 30.03261 31.48053 30080 ft 427 kts 304°
2026-04-29 17:18 30.06792 31.42557 30043 ft 427 kts 304°
2026-04-29 17:18 30.10596 31.37275 29999 ft 432 kts 311°
2026-04-29 17:19 30.12803 31.34884 30133 ft 436 kts 314°
2026-04-29 17:19 30.14292 31.33315 30333 ft 435 kts 314°
2026-04-29 17:19 30.16514 31.30956 30769 ft 431 kts 314°
2026-04-29 17:19 30.19417 31.27858 31253 ft 428 kts 313°
2026-04-29 17:20 30.21597 31.25521 31494 ft 428 kts 313°
2026-04-29 17:20 30.23080 31.23927 31634 ft 429 kts 313°
2026-04-29 17:20 30.25263 31.21579 31865 ft 429 kts 313°
2026-04-29 17:20 30.27424 31.19254 31919 ft 430 kts 313°
2026-04-29 17:21 30.31805 31.14537 31990 ft 429 kts 313°
2026-04-29 17:21 30.33989 31.12183 31993 ft 428 kts 313°
2026-04-29 17:22 30.37890 31.07976 32001 ft 427 kts 313°
2026-04-29 17:22 30.42232 31.03288 32006 ft 426 kts 313°
2026-04-29 17:23 30.46568 30.98600 32006 ft 426 kts 313°
2026-04-29 17:23 30.50909 30.93901 32035 ft 427 kts 313°
2026-04-29 17:24 30.55249 30.89197 32009 ft 426 kts 313°
2026-04-29 17:24 30.59558 30.84520 32007 ft 425 kts 313°
2026-04-29 17:25 30.63872 30.79832 32012 ft 424 kts 313°
2026-04-29 17:25 30.68183 30.75141 32026 ft 424 kts 313°
2026-04-29 17:26 30.72461 30.70480 32024 ft 424 kts 313°
2026-04-29 17:26 30.74613 30.68133 32023 ft 424 kts 313°
2026-04-29 17:27 30.78858 30.63499 32023 ft 424 kts 313°
2026-04-29 17:27 30.83161 30.58796 32050 ft 425 kts 313°
2026-04-29 17:28 30.87471 30.54078 32035 ft 424 kts 313°
2026-04-29 17:28 30.91748 30.49392 32030 ft 424 kts 313°
2026-04-29 17:29 30.96049 30.44672 32033 ft 423 kts 313°
2026-04-29 17:29 31.00310 30.39990 32038 ft 423 kts 313°
2026-04-29 17:30 31.04588 30.35284 32034 ft 423 kts 313°
2026-04-29 17:30 31.08267 30.30009 32043 ft 417 kts 300°
2026-04-29 17:31 31.10956 30.24013 32038 ft 418 kts 290°
2026-04-29 17:31 31.11846 30.20826 32049 ft 418 kts 288°
2026-04-29 17:32 31.13499 30.14591 32047 ft 419 kts 288°
2026-04-29 17:32 31.15261 30.08080 32055 ft 420 kts 288°
2026-04-29 17:33 31.17045 30.01564 32043 ft 419 kts 290°
2026-04-29 17:33 31.18254 29.98534 32042 ft 418 kts 302°
2026-04-29 17:33 31.20032 29.95830 32057 ft 421 kts 309°
2026-04-29 17:34 31.24490 29.91357 32041 ft 429 kts 326°
2026-04-29 17:34 31.29801 29.88116 32058 ft 431 kts 327°
2026-04-29 17:35 31.37783 29.83229 32050 ft 431 kts 326°
2026-04-29 17:36 31.43054 29.79942 32052 ft 431 kts 326°
2026-04-29 17:36 31.48348 29.76622 32048 ft 431 kts 326°
2026-04-29 17:37 31.50877 29.75033 32049 ft 430 kts 326°
2026-04-29 17:37 31.56160 29.71712 32059 ft 430 kts 326°
2026-04-29 17:38 31.61448 29.68384 32055 ft 430 kts 326°
2026-04-29 17:38 31.66689 29.65082 32049 ft 429 kts 326°
2026-04-29 17:39 31.71957 29.61759 32049 ft 429 kts 326°
2026-04-29 17:39 31.77226 29.58430 32049 ft 429 kts 326°
2026-04-29 17:40 31.82484 29.55104 32082 ft 429 kts 326°
2026-04-29 17:40 31.87736 29.51777 32058 ft 430 kts 326°
2026-04-29 17:41 31.93013 29.48430 32051 ft 431 kts 326°
2026-04-29 17:41 31.98275 29.45089 32055 ft 431 kts 326°
2026-04-29 17:42 32.00802 29.43483 32055 ft 431 kts 326°
2026-04-29 17:42 32.06087 29.40110 32055 ft 431 kts 326°
2026-04-29 17:43 32.11369 29.36730 32077 ft 432 kts 326°
2026-04-29 17:43 32.16632 29.33359 32063 ft 433 kts 326°
2026-04-29 17:44 32.21938 29.29957 32054 ft 433 kts 326°
2026-04-29 17:44 32.27244 29.26559 32052 ft 434 kts 326°
2026-04-29 17:45 32.32549 29.23159 32056 ft 434 kts 326°
2026-04-29 17:45 32.37835 29.19766 32056 ft 434 kts 326°
2026-04-29 17:46 32.43145 29.16352 32056 ft 434 kts 326°
2026-04-29 17:46 32.48448 29.12937 32052 ft 434 kts 326°
2026-04-29 17:47 32.51074 29.11244 32053 ft 434 kts 326°
2026-04-29 17:47 32.56343 29.07844 32053 ft 433 kts 326°
2026-04-29 17:48 32.61639 29.04423 32050 ft 433 kts 326°
2026-04-29 17:48 32.66940 29.00993 32073 ft 433 kts 326°
2026-04-29 17:48 32.69584 28.99277 31909 ft 437 kts 331°
2026-04-29 17:49 32.72226 28.97573 32083 ft 429 kts 326°
2026-04-29 17:49 32.77510 28.94143 32045 ft 435 kts 326°
2026-04-29 17:50 32.82824 28.90685 32052 ft 439 kts 326°
2026-04-29 17:50 32.88171 28.87207 32052 ft 440 kts 326°
2026-04-29 17:51 32.93542 28.83710 32057 ft 439 kts 326°
2026-04-29 17:51 32.98909 28.80210 32063 ft 439 kts 326°
2026-04-29 17:52 33.01334 28.78626 32060 ft 439 kts 326°
2026-04-29 17:52 33.06669 28.75139 32057 ft 439 kts 326°
2026-04-29 17:53 33.12028 28.71632 32054 ft 439 kts 326°
2026-04-29 17:53 33.17393 28.68114 32054 ft 439 kts 326°
2026-04-29 17:54 33.22746 28.64601 32054 ft 439 kts 326°
2026-04-29 17:54 33.28101 28.61080 32062 ft 440 kts 326°
2026-04-29 17:55 33.33432 28.57570 32058 ft 441 kts 326°
2026-04-29 17:55 33.38819 28.54019 32053 ft 441 kts 326°
2026-04-29 17:56 33.44209 28.50461 32056 ft 442 kts 326°
2026-04-29 17:56 33.49564 28.46921 32050 ft 442 kts 326°
2026-04-29 17:57 33.52068 28.45264 32068 ft 442 kts 326°
2026-04-29 17:57 33.57463 28.41690 32055 ft 442 kts 326°
2026-04-29 17:58 33.62823 28.38134 32055 ft 443 kts 326°
2026-04-29 17:58 33.68228 28.34542 32048 ft 443 kts 326°
2026-04-29 17:59 33.73621 28.30953 32047 ft 443 kts 326°
2026-04-29 17:59 33.79023 28.27354 32048 ft 443 kts 326°
2026-04-29 18:00 33.84383 28.23758 32061 ft 444 kts 326°
2026-04-29 18:00 33.89787 28.20106 32040 ft 444 kts 326°
2026-04-29 18:01 33.95189 28.16449 32058 ft 445 kts 326°
2026-04-29 18:01 34.00562 28.12809 32057 ft 445 kts 326°
2026-04-29 18:02 34.03297 28.10955 32040 ft 445 kts 326°
2026-04-29 18:02 34.08705 28.07285 32055 ft 446 kts 327°
2026-04-29 18:03 34.14091 28.03624 32057 ft 447 kts 327°
2026-04-29 18:03 34.19527 27.99923 32051 ft 448 kts 327°
2026-04-29 18:04 34.24978 27.96207 32045 ft 449 kts 327°
2026-04-29 18:04 34.30394 27.92509 32044 ft 450 kts 327°
2026-04-29 18:05 34.35848 27.88780 32056 ft 450 kts 327°
2026-04-29 18:05 34.41307 27.85041 32043 ft 451 kts 327°
2026-04-29 18:06 34.46778 27.81289 32042 ft 452 kts 327°
2026-04-29 18:06 34.52221 27.77551 32041 ft 452 kts 327°
2026-04-29 18:07 34.54829 27.75756 32041 ft 452 kts 327°
2026-04-29 18:07 34.60309 27.71975 32041 ft 452 kts 327°
2026-04-29 18:08 34.65753 27.68207 32044 ft 453 kts 327°
2026-04-29 18:08 34.71242 27.64403 32040 ft 454 kts 327°
2026-04-29 18:09 34.76739 27.60588 32039 ft 455 kts 327°
2026-04-29 18:09 34.81319 27.57406 32039 ft 456 kts 327°
2026-04-29 18:10 34.86840 27.53564 32038 ft 456 kts 327°
2026-04-29 18:10 34.92360 27.49716 32039 ft 457 kts 327°
2026-04-29 18:11 34.97858 27.45879 32040 ft 458 kts 327°
2026-04-29 18:11 35.03396 27.42007 32041 ft 459 kts 327°
2026-04-29 18:12 35.06159 27.40073 32037 ft 460 kts 327°
2026-04-29 18:12 35.11718 27.36177 32040 ft 460 kts 327°
2026-04-29 18:13 35.17275 27.32276 32035 ft 460 kts 327°
2026-04-29 18:13 35.22825 27.28375 32036 ft 460 kts 327°
2026-04-29 18:14 35.28386 27.24458 32035 ft 460 kts 327°
2026-04-29 18:14 35.33893 27.20573 32034 ft 459 kts 327°
2026-04-29 18:15 35.39447 27.16650 32020 ft 459 kts 327°
2026-04-29 18:15 35.45093 27.12994 32050 ft 460 kts 333°
2026-04-29 18:16 35.50920 27.09753 32019 ft 463 kts 333°
2026-04-29 18:16 35.56769 27.06485 32027 ft 465 kts 332°
2026-04-29 18:17 35.59638 27.04868 32033 ft 465 kts 332°
2026-04-29 18:17 35.65531 27.01533 32035 ft 466 kts 332°
2026-04-29 18:18 35.71421 26.98193 32055 ft 465 kts 333°
2026-04-29 18:18 35.77278 26.94866 32044 ft 466 kts 333°
2026-04-29 18:19 35.83165 26.91517 32041 ft 466 kts 333°
2026-04-29 18:19 35.89060 26.88159 32041 ft 466 kts 333°
2026-04-29 18:20 35.94952 26.84792 32041 ft 466 kts 332°
2026-04-29 18:20 36.00845 26.81419 32042 ft 467 kts 333°
2026-04-29 18:21 36.06641 26.78095 32042 ft 468 kts 333°
2026-04-29 18:21 36.12571 26.74689 32052 ft 464 kts 333°
2026-04-29 18:22 36.15439 26.73041 32022 ft 464 kts 333°
2026-04-29 18:22 36.21310 26.69660 32024 ft 466 kts 333°
2026-04-29 18:23 36.27194 26.66267 32028 ft 467 kts 333°
2026-04-29 18:23 36.33098 26.62852 32034 ft 468 kts 333°
2026-04-29 18:24 36.38984 26.59434 32030 ft 469 kts 333°
2026-04-29 18:24 36.44905 26.55992 32028 ft 469 kts 333°
2026-04-29 18:25 36.50812 26.52552 32032 ft 469 kts 333°
2026-04-29 18:25 36.56737 26.49099 32031 ft 469 kts 333°
2026-04-29 18:26 36.62620 26.45668 32028 ft 470 kts 333°
2026-04-29 18:26 36.68538 26.42210 32030 ft 470 kts 333°
2026-04-29 18:27 36.71391 26.40541 32030 ft 470 kts 333°
2026-04-29 18:27 36.77309 26.37073 32038 ft 470 kts 333°
2026-04-29 18:28 36.83236 26.33594 32040 ft 471 kts 333°
2026-04-29 18:28 36.89135 26.30126 32039 ft 472 kts 333°
2026-04-29 18:29 36.95085 26.26621 32038 ft 472 kts 333°
2026-04-29 18:29 37.01024 26.23092 32047 ft 472 kts 333°
2026-04-29 18:30 37.06935 26.19478 32042 ft 472 kts 333°
2026-04-29 18:30 37.12806 26.15870 32041 ft 473 kts 333°
2026-04-29 18:31 37.18712 26.12247 32043 ft 472 kts 333°
2026-04-29 18:31 37.24633 26.08614 32045 ft 472 kts 333°
2026-04-29 18:32 37.27598 26.06793 32052 ft 472 kts 333°
2026-04-29 18:32 37.36419 26.01365 32045 ft 472 kts 333°
2026-04-29 18:33 37.42314 25.97729 32049 ft 471 kts 333°
2026-04-29 18:33 37.48207 25.94088 32051 ft 471 kts 333°
2026-04-29 18:34 37.53095 25.91062 32052 ft 471 kts 333°
2026-04-29 18:34 37.59963 25.86805 32050 ft 470 kts 333°
2026-04-29 18:35 37.65800 25.83184 32055 ft 470 kts 333°
2026-04-29 18:35 37.71663 25.79541 32052 ft 469 kts 333°
2026-04-29 18:36 37.77531 25.75887 32054 ft 469 kts 332°
2026-04-29 18:36 37.80460 25.74060 32055 ft 469 kts 332°
2026-04-29 18:37 37.86360 25.70376 32055 ft 469 kts 332°
2026-04-29 18:37 37.92184 25.66733 32055 ft 470 kts 332°
2026-04-29 18:38 37.98050 25.63057 32058 ft 470 kts 332°
2026-04-29 18:38 38.03915 25.59375 32060 ft 470 kts 332°
2026-04-29 18:39 38.09769 25.55694 32059 ft 469 kts 332°
2026-04-29 18:39 38.15588 25.52027 32049 ft 469 kts 332°
2026-04-29 18:40 38.21435 25.48337 32060 ft 469 kts 332°
2026-04-29 18:40 38.27275 25.44644 32072 ft 469 kts 332°
2026-04-29 18:41 38.36048 25.39084 32072 ft 468 kts 332°
2026-04-29 18:42 38.41886 25.35376 32053 ft 468 kts 332°
2026-04-29 18:42 38.47724 25.31661 32053 ft 468 kts 332°
2026-04-29 18:43 38.53551 25.27947 32059 ft 468 kts 332°
2026-04-29 18:43 38.59385 25.24221 32061 ft 467 kts 332°
2026-04-29 18:44 38.65183 25.20511 32064 ft 467 kts 332°
2026-04-29 18:44 38.71001 25.16781 32065 ft 467 kts 332°
2026-04-29 18:45 38.76769 25.13077 32078 ft 466 kts 332°
2026-04-29 18:45 38.82565 25.09348 32067 ft 466 kts 332°
2026-04-29 18:46 38.88358 25.05614 32066 ft 466 kts 332°
2026-04-29 18:46 38.91256 25.03743 32070 ft 465 kts 332°
2026-04-29 18:47 38.96710 25.00217 31894 ft 465 kts 333°
2026-04-29 18:47 38.99595 24.98351 32124 ft 464 kts 331°
2026-04-29 18:47 39.02482 24.96480 32066 ft 466 kts 331°
2026-04-29 18:48 39.08287 24.92715 32067 ft 467 kts 331°
2026-04-29 18:48 39.14070 24.89031 32075 ft 467 kts 332°
2026-04-29 18:49 39.19939 24.85420 32070 ft 467 kts 332°
2026-04-29 18:49 39.25810 24.81798 32083 ft 466 kts 332°
2026-04-29 18:50 39.31668 24.78157 32076 ft 466 kts 332°
2026-04-29 18:50 39.37491 24.74525 32069 ft 466 kts 332°
2026-04-29 18:51 39.43304 24.70893 32070 ft 466 kts 332°
2026-04-29 18:51 39.46223 24.69067 32077 ft 466 kts 332°
2026-04-29 18:52 39.51938 24.65489 32081 ft 465 kts 332°
2026-04-29 18:52 39.57746 24.61849 32077 ft 465 kts 332°
2026-04-29 18:53 39.63574 24.58191 32075 ft 465 kts 332°
2026-04-29 18:53 39.69399 24.54526 32076 ft 464 kts 332°
2026-04-29 18:54 39.75183 24.50880 32084 ft 464 kts 332°
2026-04-29 18:54 39.81009 24.47200 32077 ft 464 kts 332°
2026-04-29 18:55 39.86788 24.43543 32082 ft 464 kts 332°
2026-04-29 18:55 39.91629 24.40475 32082 ft 463 kts 332°
2026-04-29 18:56 39.97440 24.36785 32105 ft 463 kts 331°
2026-04-29 18:56 40.01292 24.34336 32091 ft 463 kts 331°
2026-04-29 18:57 40.05938 24.31377 32087 ft 462 kts 331°
2026-04-29 18:57 40.11719 24.27689 32083 ft 461 kts 331°
2026-04-29 18:58 40.17496 24.23996 32088 ft 461 kts 331°
2026-04-29 18:58 40.23236 24.20319 32085 ft 461 kts 331°
2026-04-29 18:59 40.29007 24.16616 32087 ft 461 kts 331°
2026-04-29 18:59 40.34740 24.12931 32087 ft 461 kts 331°
2026-04-29 19:00 40.40520 24.09208 32084 ft 461 kts 331°
2026-04-29 19:00 40.46292 24.05483 32098 ft 461 kts 331°
2026-04-29 19:01 40.52036 24.01768 32088 ft 461 kts 331°
2026-04-29 19:01 40.54915 23.99905 32088 ft 461 kts 331°
2026-04-29 19:02 40.60763 23.96777 32088 ft 465 kts 340°
2026-04-29 19:02 40.67107 23.94931 32109 ft 467 kts 346°
2026-04-29 19:03 40.73494 23.93473 32090 ft 467 kts 346°
2026-04-29 19:03 40.79917 23.91978 32080 ft 467 kts 346°
2026-04-29 19:04 40.86326 23.90453 32090 ft 467 kts 346°
2026-04-29 19:04 40.92696 23.88925 32095 ft 466 kts 346°
2026-04-29 19:05 40.99094 23.87385 32086 ft 466 kts 346°
2026-04-29 19:05 41.05457 23.85854 32093 ft 464 kts 346°
2026-04-29 19:06 41.11780 23.84330 32106 ft 464 kts 345°
2026-04-29 19:07 41.17982 23.82830 32094 ft 464 kts 345°
2026-04-29 19:07 41.24335 23.81292 32099 ft 463 kts 345°
2026-04-29 19:08 41.30686 23.79761 32106 ft 464 kts 345°
2026-04-29 19:08 41.37010 23.78261 32085 ft 464 kts 345°
2026-04-29 19:09 41.43383 23.76786 32102 ft 464 kts 346°
2026-04-29 19:09 41.49777 23.75459 32081 ft 465 kts 347°
2026-04-29 19:10 41.56167 23.74160 32102 ft 464 kts 346°
2026-04-29 19:10 41.62517 23.72851 32094 ft 463 kts 346°
2026-04-29 19:11 41.68891 23.71522 32089 ft 462 kts 346°
2026-04-29 19:11 41.75267 23.70183 32102 ft 463 kts 346°
2026-04-29 19:12 41.78311 23.69542 32098 ft 464 kts 346°
2026-04-29 19:12 41.84709 23.68194 32104 ft 464 kts 346°
2026-04-29 19:13 41.91057 23.66855 32129 ft 464 kts 346°
2026-04-29 19:13 41.97450 23.65507 32105 ft 463 kts 346°
2026-04-29 19:14 42.03782 23.64166 32104 ft 462 kts 346°
2026-04-29 19:14 42.10134 23.62820 32091 ft 461 kts 346°
2026-04-29 19:15 42.16464 23.61477 32102 ft 459 kts 345°
2026-04-29 19:15 42.22737 23.60142 32100 ft 458 kts 345°
2026-04-29 19:16 42.29037 23.58798 32111 ft 458 kts 345°
2026-04-29 19:16 42.35346 23.57444 32107 ft 459 kts 345°
2026-04-29 19:17 42.38313 23.56809 32103 ft 459 kts 345°
2026-04-29 19:17 42.44600 23.55461 32105 ft 460 kts 345°
2026-04-29 19:18 42.50934 23.54099 32115 ft 460 kts 345°
2026-04-29 19:18 42.53014 23.53650 31701 ft 460 kts 350°
2026-04-29 19:18 42.57169 23.52764 32122 ft 457 kts 345°
2026-04-29 19:19 42.63474 23.51399 32117 ft 462 kts 345°
2026-04-29 19:19 42.69854 23.50016 32120 ft 465 kts 345°
2026-04-29 19:20 42.76244 23.48635 32110 ft 461 kts 345°
2026-04-29 19:20 42.82509 23.47278 32126 ft 458 kts 345°
2026-04-29 19:21 42.88833 23.45900 32118 ft 459 kts 345°
2026-04-29 19:21 42.95122 23.44528 32131 ft 459 kts 345°
2026-04-29 19:22 42.98099 23.43878 32137 ft 459 kts 345°
2026-04-29 19:22 43.04422 23.42496 32131 ft 460 kts 345°
2026-04-29 19:23 43.10713 23.41118 32130 ft 460 kts 345°
2026-04-29 19:23 43.17004 23.39735 32135 ft 458 kts 344°
2026-04-29 19:24 43.23288 23.38354 32150 ft 455 kts 344°
2026-04-29 19:24 43.29510 23.36983 32136 ft 455 kts 344°
2026-04-29 19:25 43.35767 23.35600 32164 ft 454 kts 344°
2026-04-29 19:25 43.41982 23.34224 32143 ft 453 kts 344°
2026-04-29 19:26 43.48210 23.32843 32147 ft 452 kts 344°
2026-04-29 19:26 43.54422 23.31461 32166 ft 452 kts 343°
2026-04-29 19:27 43.57393 23.30799 32148 ft 452 kts 343°
2026-04-29 19:27 43.63600 23.29414 32146 ft 451 kts 343°
2026-04-29 19:28 43.69772 23.28034 32141 ft 451 kts 343°
2026-04-29 19:28 43.75949 23.26651 32161 ft 451 kts 343°
2026-04-29 19:29 43.82142 23.25121 32150 ft 447 kts 339°
2026-04-29 19:29 43.87971 23.22378 32142 ft 439 kts 330°
2026-04-29 19:30 43.93559 23.19067 32139 ft 439 kts 330°
2026-04-29 19:30 43.99208 23.15736 32142 ft 440 kts 330°
2026-04-29 19:31 44.04833 23.12433 32135 ft 440 kts 330°
2026-04-29 19:31 44.10489 23.09114 32140 ft 441 kts 330°
2026-04-29 19:32 44.13217 23.07511 32139 ft 441 kts 330°
2026-04-29 19:32 44.18868 23.04187 32179 ft 441 kts 330°
2026-04-29 19:33 44.24486 23.00875 32145 ft 440 kts 330°
2026-04-29 19:33 44.30128 22.97542 32139 ft 439 kts 330°
2026-04-29 19:34 44.35722 22.94230 32133 ft 437 kts 330°
2026-04-29 19:34 44.41320 22.90909 32135 ft 436 kts 330°
2026-04-29 19:35 44.46905 22.87588 32135 ft 435 kts 330°
2026-04-29 19:35 44.52443 22.84287 32131 ft 434 kts 330°
2026-04-29 19:36 44.58006 22.80965 32134 ft 434 kts 330°
2026-04-29 19:36 44.63576 22.77631 32136 ft 435 kts 330°
2026-04-29 19:37 44.66264 22.76019 32159 ft 436 kts 330°
2026-04-29 19:37 44.71863 22.72658 32131 ft 436 kts 330°
2026-04-29 19:38 44.77443 22.69304 32134 ft 436 kts 330°
2026-04-29 19:38 44.82987 22.65963 32133 ft 435 kts 330°
2026-04-29 19:39 44.88561 22.62595 32157 ft 435 kts 330°
2026-04-29 19:39 44.94144 22.59216 32153 ft 436 kts 329°
2026-04-29 19:40 44.99688 22.55853 32146 ft 435 kts 329°
2026-04-29 19:40 45.05264 22.52463 32173 ft 434 kts 329°
2026-04-29 19:41 45.10831 22.49077 32163 ft 436 kts 329°
2026-04-29 19:41 45.16366 22.45693 32182 ft 435 kts 329°
2026-04-29 19:42 45.19051 22.44051 32173 ft 435 kts 329°
2026-04-29 19:42 45.24621 22.40638 32160 ft 435 kts 329°
2026-04-29 19:43 45.30160 22.37240 32160 ft 435 kts 329°
2026-04-29 19:43 45.35713 22.33826 32176 ft 435 kts 329°
2026-04-29 19:44 45.40335 22.30978 32172 ft 435 kts 329°
2026-04-29 19:44 45.46784 22.26996 32165 ft 433 kts 329°
2026-04-29 19:45 45.51422 22.24126 32175 ft 433 kts 329°
2026-04-29 19:45 45.56931 22.20709 32165 ft 433 kts 329°
2026-04-29 19:46 45.62457 22.17274 32203 ft 434 kts 329°
2026-04-29 19:46 45.67964 22.13843 32179 ft 434 kts 329°
2026-04-29 19:47 45.70596 22.12203 32185 ft 434 kts 329°
2026-04-29 19:47 45.76137 22.08741 32171 ft 434 kts 329°
2026-04-29 19:48 45.81642 22.05295 32175 ft 434 kts 329°
2026-04-29 19:48 45.87175 22.01823 32191 ft 434 kts 329°
2026-04-29 19:49 45.92725 21.98332 32191 ft 434 kts 329°
2026-04-29 19:49 45.98232 21.94862 32191 ft 434 kts 329°
2026-04-29 19:50 46.03771 21.91363 32179 ft 434 kts 329°
2026-04-29 19:50 46.09322 21.87848 32240 ft 435 kts 328°
2026-04-29 19:51 46.14844 21.84345 32204 ft 437 kts 329°
2026-04-29 19:51 46.20419 21.80800 32194 ft 437 kts 329°
2026-04-29 19:52 46.22979 21.79172 32190 ft 438 kts 328°
2026-04-29 19:52 46.28551 21.75616 32195 ft 437 kts 328°
2026-04-29 19:53 46.34126 21.72052 32233 ft 437 kts 328°
2026-04-29 19:53 46.39713 21.68472 32216 ft 438 kts 328°
2026-04-29 19:54 46.48071 21.63101 32209 ft 439 kts 328°
2026-04-29 19:54 46.53660 21.59501 32209 ft 439 kts 328°
2026-04-29 19:55 46.59249 21.55891 32234 ft 439 kts 328°
2026-04-29 19:55 46.64811 21.52289 32214 ft 440 kts 328°
2026-04-29 19:56 46.70409 21.48657 32211 ft 440 kts 328°
2026-04-29 19:56 46.73208 21.46834 32210 ft 440 kts 328°
2026-04-29 19:57 46.77693 21.43904 32211 ft 440 kts 328°
2026-04-29 19:57 46.84204 21.39640 32212 ft 440 kts 328°
2026-04-29 19:58 46.89766 21.35989 32217 ft 440 kts 328°
2026-04-29 19:58 46.95363 21.32306 32216 ft 440 kts 328°
2026-04-29 19:59 47.00953 21.28620 32224 ft 441 kts 328°
2026-04-29 19:59 47.06552 21.24919 32223 ft 441 kts 328°
2026-04-29 20:00 47.09308 21.23091 31114 ft 441 kts 334°
2026-04-29 20:00 47.12067 21.21265 32480 ft 435 kts 329°
2026-04-29 20:00 47.14849 21.19420 32363 ft 439 kts 329°
2026-04-29 20:00 47.17651 21.17555 32317 ft 444 kts 329°
2026-04-29 20:01 47.23318 21.13779 32251 ft 447 kts 329°
2026-04-29 20:01 47.26152 21.11893 32236 ft 446 kts 329°
2026-04-29 20:02 47.31573 21.08278 32246 ft 444 kts 329°
2026-04-29 20:02 47.36294 21.05119 32249 ft 445 kts 329°